• In Netherlands
  • List of Countries
  • For 7 days
  • Water Temperature
  • Satellite Maps
  • Weather Map
  • Weather Widgets
  • user-avatar
    Login

    Hourly Weather Lankaran

    Today, 19 August, Saturday

    Time Temperature Precipitation Wind Pressure Humidity
    00:00 +19°C° 0 mm 1 mps 635 mmHg 75%
    01:00 +18°C° 0 mm 1 mps 635 mmHg 76%
    02:00 +18°C° 0 mm 1 mps 635 mmHg 76%
    03:00 +18°C° 0 mm 1 mps 635 mmHg 77%
    04:00 +18°C° 0 mm 1 mps 635 mmHg 75%
    05:00 +19°C° 0 mm 1 mps 636 mmHg 73%
    06:00 +19°C° 0 mm 1 mps 636 mmHg 70%
    07:00 +20°C° 0 mm 2 mps 637 mmHg 61%
    08:00 +23°C° 0 mm 2 mps 637 mmHg 52%
    09:00 +25°C° 0 mm 3 mps 638 mmHg 43%
    10:00 +26°C° 0 mm 3 mps 638 mmHg 39%
    11:00 +27°C° 0 mm 3 mps 638 mmHg 34%
    12:00 +28°C° 0 mm 4 mps 638 mmHg 30%
    13:00 +28°C° 0 mm 4 mps 638 mmHg 29%
    14:00 +28°C° 0 mm 4 mps 638 mmHg 28%
    15:00 +28°C° 0 mm 4 mps 638 mmHg 27%
    16:00 +27°C° 0 mm 4 mps 637 mmHg 29%
    17:00 +25°C° 0 mm 3 mps 637 mmHg 30%
    18:00 +24°C° 0 mm 3 mps 637 mmHg 32%
    19:00 +21°C° 0 mm 3 mps 637 mmHg 34%
    20:00 +20°C° 0 mm 2 mps 637 mmHg 36%
    21:00 +18°C° 0 mm 2 mps 636 mmHg 38%
    22:00 +18°C° 0 mm 2 mps 636 mmHg 35%
    23:00 +18°C° 0 mm 2 mps 636 mmHg 33%

    Tomorrow, 20 August, Sunday

    Time Temperature Precipitation Wind Pressure Humidity
    00:00 +18°C° 0 mm 2 mps 636 mmHg 31%
    01:00 +17°C° 0 mm 2 mps 636 mmHg 31%
    02:00 +18°C° 0 mm 1 mps 636 mmHg 30%
    03:00 +18°C° 0 mm 1 mps 635 mmHg 30%
    04:00 +18°C° 0 mm 1 mps 636 mmHg 30%
    05:00 +18°C° 0 mm 1 mps 636 mmHg 29%
    06:00 +18°C° 0 mm 2 mps 636 mmHg 29%
    07:00 +20°C° 0 mm 2 mps 637 mmHg 27%
    08:00 +24°C° 0 mm 2 mps 637 mmHg 24%
    09:00 +26°C° 0 mm 3 mps 638 mmHg 22%
    10:00 +27°C° 0 mm 3 mps 638 mmHg 21%
    11:00 +28°C° 0 mm 3 mps 638 mmHg 19%
    12:00 +29°C° 0 mm 4 mps 638 mmHg 18%
    13:00 +29°C° 0 mm 4 mps 637 mmHg 18%
    14:00 +29°C° 0 mm 4 mps 637 mmHg 19%
    15:00 +29°C° 0 mm 4 mps 637 mmHg 19%
    16:00 +27°C° 0 mm 3 mps 636 mmHg 22%
    17:00 +26°C° 0 mm 3 mps 636 mmHg 25%
    18:00 +24°C° 0 mm 2 mps 635 mmHg 28%
    19:00 +23°C° 0 mm 2 mps 635 mmHg 30%
    20:00 +20°C° 0 mm 2 mps 635 mmHg 31%
    21:00 +18°C° 0 mm 2 mps 635 mmHg 33%
    22:00 +18°C° 0 mm 2 mps 635 mmHg 31%
    23:00 +19°C° 0 mm 1 mps 635 mmHg 30%

    Day after tomorrow, 21 August, Monday

    Time Temperature Precipitation Wind Pressure Humidity
    00:00 +19°C° 0 mm 1 mps 635 mmHg 29%
    01:00 +19°C° 0 mm 1 mps 635 mmHg 29%
    02:00 +19°C° 0 mm 1 mps 634 mmHg 29%
    03:00 +18°C° 0 mm 1 mps 634 mmHg 29%
    04:00 +19°C° 0 mm 1 mps 634 mmHg 29%
    05:00 +19°C° 0 mm 1 mps 634 mmHg 29%
    06:00 +20°C° 0 mm 1 mps 635 mmHg 29%
    07:00 +21°C° 0 mm 2 mps 635 mmHg 29%
    08:00 +24°C° 0 mm 2 mps 636 mmHg 29%
    09:00 +26°C° 0 mm 3 mps 636 mmHg 29%
    10:00 +27°C° 0 mm 3 mps 636 mmHg 29%
    11:00 +28°C° 0 mm 3 mps 636 mmHg 28%
    12:00 +29°C° 0 mm 3 mps 636 mmHg 27%
    13:00 +30°C° 0 mm 3 mps 636 mmHg 28%
    14:00 +30°C° 0 mm 3 mps 635 mmHg 28%
    15:00 +30°C° 0 mm 3 mps 635 mmHg 29%
    16:00 +28°C° 0 mm 3 mps 634 mmHg 33%
    17:00 +27°C° 0 mm 3 mps 634 mmHg 38%
    18:00 +25°C° 0 mm 2 mps 634 mmHg 43%
    19:00 +24°C° 0 mm 2 mps 634 mmHg 47%
    20:00 +22°C° 0 mm 1 mps 634 mmHg 52%
    21:00 +21°C° 0 mm 1 mps 634 mmHg 57%
    22:00 +20°C° 0 mm 1 mps 633 mmHg 56%
    23:00 +20°C° 0 mm 1 mps 633 mmHg 55%

    22 August, Tuesday

    Time Temperature Precipitation Wind Pressure Humidity
    00:00 +20°C° 0 mm 1 mps 633 mmHg 54%
    01:00 +20°C° 0 mm 1 mps 633 mmHg 55%
    02:00 +19°C° 0 mm 1 mps 633 mmHg 55%
    03:00 +19°C° 0 mm 1 mps 633 mmHg 55%
    04:00 +19°C° 0 mm 1 mps 633 mmHg 54%
    05:00 +20°C° 0 mm 1 mps 633 mmHg 52%
    06:00 +20°C° 0 mm 1 mps 634 mmHg 51%
    07:00 +23°C° 0 mm 1 mps 634 mmHg 45%
    08:00 +25°C° 0 mm 1 mps 635 mmHg 39%
    09:00 +27°C° 0 mm 2 mps 636 mmHg 33%
    10:00 +28°C° 0 mm 2 mps 636 mmHg 30%
    11:00 +29°C° 0 mm 2 mps 635 mmHg 28%
    12:00 +31°C° 0 mm 3 mps 635 mmHg 26%
    13:00 +31°C° 0 mm 3 mps 635 mmHg 25%
    14:00 +31°C° 0 mm 3 mps 635 mmHg 25%
    15:00 +31°C° 0 mm 3 mps 635 mmHg 25%
    16:00 +29°C° 0 mm 3 mps 634 mmHg 29%
    17:00 +28°C° 0 mm 3 mps 634 mmHg 33%
    18:00 +26°C° 0 mm 2 mps 633 mmHg 37%
    19:00 +24°C° 0 mm 2 mps 633 mmHg 42%
    20:00 +23°C° 0 mm 2 mps 633 mmHg 46%
    21:00 +21°C° 0 mm 1 mps 633 mmHg 51%
    22:00 +21°C° 0 mm 1 mps 633 mmHg 51%
    23:00 +20°C° 0 mm 1 mps 633 mmHg 50%

    23 August, Wednesday

    Time Temperature Precipitation Wind Pressure Humidity
    00:00 +20°C° 0 mm 1 mps 633 mmHg 50%
    01:00 +20°C° 0 mm 1 mps 633 mmHg 50%
    02:00 +19°C° 0 mm 1 mps 633 mmHg 51%
    03:00 +19°C° 0 mm 1 mps 633 mmHg 51%
    04:00 +19°C° 0 mm 1 mps 633 mmHg 50%
    05:00 +20°C° 0 mm 1 mps 634 mmHg 48%
    06:00 +20°C° 0 mm 1 mps 634 mmHg 47%
    07:00 +23°C° 0 mm 2 mps 635 mmHg 41%
    08:00 +25°C° 0 mm 2 mps 636 mmHg 35%
    09:00 +27°C° 0 mm 3 mps 636 mmHg 30%
    10:00 +29°C° 0 mm 3 mps 636 mmHg 27%
    11:00 +30°C° 0 mm 3 mps 636 mmHg 24%
    12:00 +32°C° 0 mm 4 mps 636 mmHg 21%
    13:00 +32°C° 0 mm 4 mps 636 mmHg 22%
    14:00 +32°C° 0 mm 4 mps 636 mmHg 23%
    15:00 +32°C° 0 mm 4 mps 636 mmHg 23%
    16:00 +29°C° 0 mm 3 mps 635 mmHg 30%
    17:00 +27°C° 0 mm 3 mps 635 mmHg 36%
    18:00 +25°C° 0 mm 2 mps 635 mmHg 42%
    19:00 +24°C° 0 mm 2 mps 635 mmHg 47%
    20:00 +21°C° 0 mm 2 mps 635 mmHg 51%
    21:00 +21°C° 0 mm 1 mps 635 mmHg 56%
    22:00 +21°C° 0 mm 1 mps 635 mmHg 54%
    23:00 +20°C° 0 mm 1 mps 634 mmHg 52%

    24 August, Thursday

    Time Temperature Precipitation Wind Pressure Humidity
    00:00 +20°C° 0 mm 1 mps 634 mmHg 50%
    01:00 +20°C° 0 mm 1 mps 634 mmHg 51%
    02:00 +19°C° 0 mm 1 mps 634 mmHg 51%
    03:00 +19°C° 0 mm 1 mps 634 mmHg 52%
    04:00 +19°C° 0 mm 1 mps 635 mmHg 52%
    05:00 +18°C° 0 mm 2 mps 635 mmHg 51%
    06:00 +19°C° 0 mm 2 mps 636 mmHg 51%
    07:00 +21°C° 0 mm 2 mps 637 mmHg 44%
    08:00 +24°C° 0 mm 3 mps 637 mmHg 36%
    09:00 +27°C° 0 mm 3 mps 638 mmHg 29%
    10:00 +28°C° 0 mm 4 mps 638 mmHg 26%
    11:00 +29°C° 0 mm 4 mps 638 mmHg 23%
    12:00 +30°C° 0 mm 4 mps 639 mmHg 20%
    13:00 +30°C° 0 mm 4 mps 638 mmHg 20%
    14:00 +30°C° 0 mm 4 mps 638 mmHg 20%
    15:00 +30°C° 0 mm 4 mps 638 mmHg 21%
    16:00 +28°C° 0 mm 4 mps 637 mmHg 25%
    17:00 +26°C° 0 mm 3 mps 637 mmHg 30%
    18:00 +24°C° 0 mm 3 mps 637 mmHg 34%
    19:00 +23°C° 0 mm 2 mps 636 mmHg 37%
    20:00 +20°C° 0 mm 2 mps 636 mmHg 41%
    21:00 +19°C° 0 mm 2 mps 636 mmHg 44%
    22:00 +20°C° 0 mm 1 mps 636 mmHg 40%
    23:00 +19°C° 0 mm 1 mps 636 mmHg 36%
    Show more